Date String (YYYY-MM-DD hh:mm:ss) UTC,Instrument flags,absolute air pressure of the measurement (hPa),sample flow rate (lpm),inlet stack bypass flow (lpm),air temperature of the measurement (°C),ambient temperature measured by the external sensor (°C),aerosol sample conditioner tube jacket temperature (°C),OPC LED temperature (°C),internal box temperature (°C),relative humidity of the measurement (%),span deviation,mass concentration of particles derived from Lorenz-Mie calculation of OPC scattering (μg/m³),mass concentration of particles derived from Lorenz-Mie calculation of OPC scattering (μg/m³),mass concentration of particles derived from Lorenz-Mie calculation of OPC scattering (μg/m³)
DateTimeUTC,F1_M11,P_M11,Q1_M11,Q2_M11,T1_M11,T2_M11,T3_M11,T4_M11,T5_M11,U1_M11,ZSPAN_M11,X0_M11,X2_M11,X1_M11
2024-02-24 17:00:00,SystemResetWarning,0827.1,4.99,000.00,019.3,018.8,000.0,027.4,020.9,08.1,0000.0,0009.13,0003.35,0001.98
2024-02-24 17:01:00,SystemResetWarning,0827.0,5.00,000.00,019.3,018.8,000.0,027.4,020.9,11.1,0000.0,0009.20,0003.41,0002.00
2024-02-24 17:02:00,SystemResetWarning,0827.1,5.01,000.00,019.3,018.8,000.0,027.4,020.9,11.4,0000.0,0009.24,0003.44,0002.00
2024-02-24 17:03:00,SystemResetWarning,0827.1,5.01,000.00,019.3,018.9,000.0,027.4,020.9,11.3,0000.0,0009.34,0003.42,0001.99
2024-02-24 17:04:00,SystemResetWarning,0827.1,5.00,000.00,019.3,018.9,000.0,027.5,020.9,11.7,0000.0,0009.65,0003.41,0001.97
2024-02-24 17:05:00,SystemResetWarning,0827.1,5.00,000.00,019.4,018.9,000.0,027.5,021.0,11.4,0000.0,0009.85,0003.40,0001.92
2024-02-24 17:06:00,SystemResetWarning,0827.2,4.99,000.00,019.4,018.9,000.0,027.5,021.0,11.0,0000.0,0010.57,0003.40,0001.90
2024-02-24 17:07:00,SystemResetWarning,0827.1,4.99,000.00,019.4,018.9,000.0,027.5,021.0,10.2,0000.0,0010.60,0003.38,0001.89
2024-02-24 17:08:00,SystemResetWarning,0827.1,5.00,000.00,019.4,019.0,000.0,027.5,021.0,10.1,0000.0,0010.88,0003.39,0001.83
2024-02-24 17:09:00,SystemResetWarning,0827.1,5.01,000.00,019.4,019.0,000.0,027.5,021.1,08.7,0000.0,0011.29,0003.41,0001.75
2024-02-24 17:10:00,SystemResetWarning,0827.1,5.01,000.00,019.4,019.0,000.0,027.5,021.1,08.4,0000.0,0011.03,0003.39,0001.64
2024-02-24 17:11:00,SystemResetWarning,0827.1,5.00,000.00,019.5,019.0,000.0,027.6,021.1,08.5,0000.0,0010.83,0003.38,0001.58
2024-02-24 17:12:00,SystemResetWarning,0827.1,4.99,000.00,019.5,019.0,000.0,027.6,021.1,08.7,0000.0,0010.82,0003.31,0001.55
2024-02-24 17:13:00,SystemResetWarning,0827.1,4.99,000.00,019.5,019.1,000.0,027.6,021.1,08.4,0000.0,0011.25,0003.21,0001.51
2024-02-24 17:14:00,SystemResetWarning,0827.2,5.00,000.00,019.5,019.1,000.0,027.6,021.1,08.4,0000.0,0011.81,0003.23,0001.50
2024-02-24 17:15:00,SystemResetWarning,0827.3,5.00,000.00,019.5,019.1,000.0,027.6,021.2,08.5,0000.0,0011.50,0003.19,0001.49
2024-02-24 17:16:00,SystemResetWarning,0827.2,5.01,000.00,019.6,019.1,000.0,027.6,021.2,09.0,0000.0,0011.51,0003.14,0001.47
2024-02-24 17:17:00,SystemResetWarning,0827.0,5.01,000.00,019.6,019.2,000.0,027.7,021.2,07.7,0000.0,0011.06,0003.15,0001.48
2024-02-24 17:18:00,SystemResetWarning,0827.0,5.00,000.00,019.6,019.2,000.0,027.7,021.2,06.8,0000.0,0010.89,0003.10,0001.46
2024-02-24 17:19:00,SystemResetWarning,0826.9,4.99,000.00,019.6,019.2,000.0,027.7,021.3,06.5,0000.0,0010.69,0003.03,0001.48
2024-02-24 17:20:00,SystemResetWarning,0826.8,4.99,000.00,019.6,019.2,000.0,027.7,021.3,06.5,0000.0,0009.83,0002.93,0001.49
2024-02-24 17:21:00,SystemResetWarning,0826.8,5.01,000.00,019.6,019.2,000.0,027.7,021.3,06.9,0000.0,0009.90,0002.90,0001.52
2024-02-24 17:22:00,SystemResetWarning,0826.7,5.01,000.00,019.7,019.2,000.0,027.7,021.3,06.7,0000.0,0009.37,0002.92,0001.52
2024-02-24 17:23:00,SystemResetWarning,0826.6,5.00,000.00,019.7,019.2,000.0,027.7,021.3,06.6,0000.0,0009.20,0002.99,0001.50
2024-02-24 17:24:00,SystemResetWarning,0826.8,4.98,000.00,019.7,019.2,000.0,027.7,021.3,07.7,0000.0,0008.78,0003.01,0001.47
2024-02-24 17:25:00,SystemResetWarning,0826.8,5.00,000.00,019.7,019.2,000.0,027.8,021.3,07.8,0000.0,0008.59,0003.02,0001.42
2024-02-24 17:26:00,SystemResetWarning,0827.0,5.00,000.00,019.7,019.2,000.0,027.8,021.3,09.0,0000.0,0008.66,0003.02,0001.36
2024-02-24 17:27:00,SystemResetWarning,0827.1,5.00,000.00,019.7,019.2,000.0,027.8,021.3,09.3,0000.0,0008.96,0003.04,0001.32
2024-02-24 17:28:00,SystemResetWarning,0827.0,5.00,000.00,019.7,019.2,000.0,027.8,021.3,09.0,0000.0,0008.94,0002.97,0001.25
2024-02-24 17:29:00,SystemResetWarning,0827.0,5.00,000.00,019.7,019.2,000.0,027.8,021.3,08.5,0000.0,0009.33,0003.01,0001.20
2024-02-24 17:30:00,SystemResetWarning,0827.0,5.00,000.00,019.7,019.3,000.0,027.8,021.3,09.2,0000.0,0009.38,0003.03,0001.16
2024-02-24 17:31:00,SystemResetWarning,0827.0,4.99,000.00,019.8,019.3,000.0,027.8,021.3,09.3,0000.0,0009.82,0003.07,0001.12
2024-02-24 17:32:00,SystemResetWarning,0827.1,5.00,000.00,019.8,019.3,000.0,027.8,021.4,09.4,0000.0,0010.01,0003.15,0001.09
2024-02-24 17:33:00,SystemResetWarning,0827.2,5.00,000.00,019.8,019.3,000.0,027.9,021.4,09.4,0000.0,0010.08,0003.09,0001.05
2024-02-24 17:34:00,SystemResetWarning,0827.2,5.00,000.00,019.8,019.4,000.0,027.9,021.4,09.2,0000.0,0010.03,0003.01,0001.01
2024-02-24 17:35:00,SystemResetWarning,0827.1,4.99,000.00,019.8,019.4,000.0,027.9,021.5,08.4,0000.0,0010.05,0003.04,0001.01
2024-02-24 17:36:00,SystemResetWarning,0827.0,5.00,000.00,019.9,019.4,000.0,027.9,021.5,07.7,0000.0,0009.64,0003.04,0001.02
2024-02-24 17:37:00,SystemResetWarning,0827.2,5.01,000.00,019.9,019.4,000.0,027.9,021.5,08.4,0000.0,0009.32,0002.98,0001.03
2024-02-24 17:38:00,SystemResetWarning,0827.0,5.02,000.00,019.9,019.4,000.0,027.9,021.5,07.6,0000.0,0009.11,0002.99,0001.04
2024-02-24 17:39:00,SystemResetWarning,0826.8,4.99,000.00,019.9,019.5,000.0,027.9,021.6,06.6,0000.0,0009.61,0003.06,0001.05
2024-02-24 17:40:00,SystemResetWarning,0826.7,4.99,000.00,019.9,019.5,000.0,028.0,021.6,06.3,0000.0,0009.01,0003.05,0001.07
2024-02-24 17:41:00,SystemResetWarning,0826.4,5.01,000.00,019.9,019.5,000.0,028.0,021.6,06.4,0000.0,0009.46,0003.10,0001.10
2024-02-24 17:42:00,SystemResetWarning,0826.4,5.02,000.00,019.9,019.5,000.0,028.0,021.6,07.1,0000.0,0010.26,0003.09,0001.11
2024-02-24 17:43:00,SystemResetWarning,0826.8,4.99,000.00,020.0,019.5,000.0,028.0,021.6,07.2,0000.0,0009.94,0003.05,0001.14
2024-02-24 17:44:00,SystemResetWarning,0826.7,4.99,000.00,020.0,019.5,000.0,028.0,021.6,07.2,0000.0,0009.84,0002.99,0001.18
2024-02-24 17:45:00,SystemResetWarning,0826.7,5.01,000.00,020.0,019.5,000.0,028.0,021.6,07.5,0000.0,0009.93,0003.03,0001.22
2024-02-24 17:46:00,SystemResetWarning,0826.9,5.01,000.00,020.0,019.5,000.0,028.0,021.6,07.7,0000.0,0009.95,0003.05,0001.23
2024-02-24 17:47:00,SystemResetWarning,0827.0,4.99,000.00,020.0,019.5,000.0,028.1,021.6,06.9,0000.0,0009.99,0003.02,0001.21
2024-02-24 17:48:00,SystemResetWarning,0826.9,4.99,000.00,020.0,019.6,000.0,028.1,021.7,06.4,0000.0,0010.02,0003.00,0001.19
2024-02-24 17:49:00,SystemResetWarning,0826.8,4.99,000.00,020.1,019.6,000.0,028.1,021.7,06.2,0000.0,0009.95,0003.02,0001.15
2024-02-24 17:50:00,SystemResetWarning,0826.6,5.01,000.00,020.1,019.6,000.0,028.1,021.7,06.1,0000.0,0009.32,0002.94,0001.12
2024-02-24 17:51:00,SystemResetWarning,0826.5,5.01,000.00,020.1,019.6,000.0,028.1,021.7,06.5,0000.0,0009.45,0002.96,0001.09
2024-02-24 17:52:00,SystemResetWarning,0826.5,5.00,000.00,020.1,019.6,000.0,028.1,021.7,06.5,0000.0,0009.26,0002.86,0001.05
2024-02-24 17:53:00,SystemResetWarning,0826.7,5.00,000.00,020.1,019.6,000.0,028.1,021.7,07.1,0000.0,0008.52,0002.89,0001.04
2024-02-24 17:54:00,SystemResetWarning,0826.7,4.99,000.00,020.1,019.6,000.0,028.1,021.8,06.9,0000.0,0008.47,0002.87,0001.01
2024-02-24 17:55:00,SystemResetWarning,0826.6,5.00,000.00,020.1,019.6,000.0,028.1,021.8,06.4,0000.0,0008.48,0002.89,0000.98
2024-02-24 17:56:00,SystemResetWarning,0826.6,5.01,000.00,020.1,019.6,000.0,028.2,021.8,06.1,0000.0,0009.06,0002.89,0000.95
2024-02-24 17:57:00,SystemResetWarning,0826.6,5.00,000.00,020.1,019.6,000.0,028.2,021.7,06.1,0000.0,0008.96,0002.81,0000.92
2024-02-24 17:58:00,SystemResetWarning,0826.6,5.00,000.00,020.1,019.6,000.0,028.2,021.7,06.3,0000.0,0008.92,0002.75,0000.91
2024-02-24 17:59:00,SystemResetWarning,0826.6,4.99,000.00,020.1,019.6,000.0,028.2,021.7,06.0,0000.0,0009.21,0002.84,0000.88
